Location: Arcones
(41.1182°N, 3.7238°W)
Time: 20:05:44
(UTC+00:00)

Meteor 1-5 Rocket - Pass Details

Date: 11 December 2025
Orbit: 788 x 913 km, 81.2° (Epoch: 12 January)

Event Time Altitude Azimuth Distance (km) Brightness Sun altitude
Rises 18:16:09 0° 350° (N) 3,306 7.2 -16.3°
Reaches altitude 10° 18:18:31 10° 350° (N) 2,382 6.5 -16.8°
Maximum altitude 18:23:54 88° 264° (W) 821 4.1 -17.7°
Drops below altitude 10° 18:29:24 10° 173° (S) 2,435 6.7 -18.7°
Sets 18:31:50 0° 173° (S) 3,384 7.4 -19.2°
